User: anonymous   Login
Location: Maiden
(35.5760°N, 81.2120°W)
Time: 15:41:36
(UTC-04:00)
Language:

Cosmos 2151 - Orbit

View from above orbital plane
View from above orbital plane
View from above satellite
View from above satellite

Ground track
Ground track

The orbit data is extracted from the following two-line orbital elements,

1 21422U 91042A   18108.70729494  .00000131  00000-0  10434-4 0  9998
2 21422  82.4985 315.6902 0014186   0.8170 359.3070 14.91941507454057
Epoch (UTC): 18 April 2018 16:58:30
Eccentricity: 0.0014186
inclination: 82.4985°
perigee height: 582 km
apogee height: 602 km
right ascension of ascending node: 315.6902°
argument of perigee: 0.8170°
revolutions per day: 14.91941507
mean anomaly at epoch: 359.3070°
orbit number at epoch: 45405

The dashed part of the orbit path shows where the satellite is in the earth's shadow,  

DLR